Scottsbluff, NE

2:14 PM MST on November 21, 2019 (GMT -0700)
Heilig

Weather History for KBFF - September, 2019

Change the Weather History Date:

Thursday, September 12, 2019

  Actual Average Record
Temperature  
Mean Temperature 60 °F -  
Max Temperature 73 °F 76 °F 97 °F (2017)
Min Temperature 46 °F 47 °F 21 °F (1902)
Degree Days  
Heating Degree Days 6    
Growing Degree Days 10 (Base 50)    
Moisture  
Dew Point 43 °F    
Average Humidity 57    
Maximum Humidity 86    
Minimum Humidity 19    
Precipitation  
Precipitation 0.00 in - - ()
Sea Level Pressure  
Sea Level Pressure 30.09 in    
Wind  
Wind Speed 13 mph (NW)    
Max Wind Speed 26 mph    
Max Gust Speed 36 mph    
Visibility 10 miles    
Events      
Averages and records for this station are not official NWS values.
T = Trace of Precipitation, MM = Missing Value Source: NWS Daily Summary

Daily Weather History Graph

Daily Weather History Graph

Search for Another Location

Airport or City:

Astronomy

Sep. 12, 2019 Rise Set
Actual Time 6:31 AM MDT 7:09 PM MDT
Civil Twilight 6:03 AM MDT 7:37 PM MDT
Nautical Twilight 5:29 AM MDT 8:10 PM MDT
Astronomical Twilight 4:55 AM MDT 8:44 PM MDT
Moon 6:56 PM MDT (9/12) 4:50 AM MDT (9/12)
Length of Visible Light 13h 34m
Length of Day
12h 38m
Waxing Gibbous, 98% of the Moon is Illuminated
Sep 12
Waxing Gibbous
Sep 13
Full
Sep 21
Last Quarter
Sep 28
New
Oct 5
First Quarter

Hourly Weather History & Observations

Time (MDT) Temp. Dew Point Humidity Pressure Visibility Wind Dir Wind Speed Gust Speed Precip Events Conditions
12:53 AM 55.9 °F 46.9 °F 72% 30.00 in 10.0 mi WNW 10.4 mph - N/A   Clear
1:53 AM 53.1 °F 45.0 °F 74% 30.01 in 10.0 mi WNW 12.7 mph - N/A   Clear
2:53 AM 52.0 °F 43.0 °F 71% 30.04 in 10.0 mi WNW 15.0 mph 20.7 mph N/A   Clear
3:53 AM 50.0 °F 42.1 °F 74% 30.04 in 10.0 mi WNW 10.4 mph - N/A   Clear
4:53 AM 48.0 °F 43.0 °F 83% 30.06 in 10.0 mi WNW 4.6 mph - N/A   Clear
5:53 AM 46.9 °F 43.0 °F 86% 30.08 in 10.0 mi WNW 8.1 mph - N/A   Clear
6:53 AM 46.9 °F 43.0 °F 86% 30.08 in 10.0 mi WNW 6.9 mph - N/A   Clear
7:53 AM 51.1 °F 44.1 °F 77% 30.08 in 10.0 mi WNW 6.9 mph - N/A   Clear
8:53 AM 57.0 °F 46.0 °F 67% 30.07 in 10.0 mi West 9.2 mph - N/A   Clear
9:53 AM 64.0 °F 45.0 °F 50% 30.07 in 10.0 mi WNW 25.3 mph 35.7 mph N/A   Clear
10:53 AM 66.0 °F 45.0 °F 47% 30.06 in 10.0 mi NW 26.5 mph 32.2 mph N/A   Mostly Cloudy
11:53 AM 68.0 °F 45.0 °F 43% 30.06 in 10.0 mi NW 26.5 mph 34.5 mph N/A   Clear
12:53 PM 68.0 °F 44.1 °F 42% 30.09 in 10.0 mi WNW 20.7 mph 32.2 mph N/A   Mostly Cloudy
1:53 PM 72.0 °F 42.1 °F 34% 30.08 in 10.0 mi NW 24.2 mph 33.4 mph N/A   Partly Cloudy
2:53 PM 73.0 °F 43.0 °F 34% 30.08 in 10.0 mi NW 23.0 mph 31.1 mph N/A   Mostly Cloudy
3:53 PM 73.0 °F 41.0 °F 31% 30.08 in 10.0 mi NW 25.3 mph 32.2 mph N/A   Partly Cloudy
4:53 PM 73.0 °F 41.0 °F 31% 30.09 in 10.0 mi NW 20.7 mph 29.9 mph N/A   Clear
5:53 PM 71.1 °F 37.9 °F 30% 30.11 in 10.0 mi NW 18.4 mph 27.6 mph N/A   Clear
6:53 PM 66.0 °F 41.0 °F 40% 30.13 in 10.0 mi NNW 11.5 mph - N/A   Clear
7:53 PM 57.0 °F 43.0 °F 59% 30.17 in 10.0 mi NNW 5.8 mph - N/A   Clear
8:53 PM 54.0 °F 43.0 °F 66% 30.18 in 10.0 mi WNW 4.6 mph - N/A   Clear
9:53 PM 53.1 °F 42.1 °F 66% 30.17 in 10.0 mi NNW 3.5 mph - N/A   Clear
10:53 PM 50.0 °F 43.0 °F 77% 30.19 in 10.0 mi NW 4.6 mph - N/A   Clear
11:53 PM 51.1 °F 42.1 °F 71% 30.19 in 10.0 mi Calm Calm - N/A   Clear